CZ-6A DEB, 54500

Orbit data source: Space-Track

CZ-6A DEB, 54500 is space debris in SSO originally from a launch on Fri, 11 Nov 2022 UTC launched from the Taiyaun Space Center, China (TSC). Debris objects in space refer to the collection of defunct objects orbiting the Earth. Examples of debris include non-operational satellites, rocket bodies, and fragments generated from explosions, collisions, or faulty payload assembly.

Loading next visibility...
Identifier
54500, 2022-151JC
Orbit
SSO
Country
Flag of CNCN / PRC
Related business
Manufacturer
SAST
Mission
Spacecraft
Bus & Motor
Unknown
Mass
Unknown
Launch date (UTC)
2022-11-11 (3 years ago)
Launch vehicle
Unknown
Launch site
Taiyaun Space Center, China (TSC)
Object type
Payload
Rocket body
Debris
Shape & HBR
Unknown shape, 1.1 m
Radar Cross Section
Small (<0.1 m²)

Expand to show TLE details & history
Last TLE update: 1 day ago

TLE from 1 day ago
0 CZ-6A DEB
1 54500U 22151JC  25349.69732765  .00002158  00000-0  83074-3 0  9994
2 54500  98.8943  26.9508 0110218 340.7765  18.9272 14.28120714160389
Epoch: 2025-12-15T16:44Z
TLE epoch observation values (Epoch: 2025-12-15T16:44:09.108Z)
Latitude
-0.00005°
Longitude
51.32069°
Altitude
726.2 km
Speed
7.531 km/s
True Right ascension
01h 47m 48s
True Declination
0° 00' 00"
Sunlit
Object was in full shadow at epoch
Visualization orbit readout
Latitude
Unknown
Longitude
Unknown
Altitude
Unknown
Speed
Unknown
Apparent Right ascension
Unknown
Apparent Declination
Unknown
Sunlit
N/A
Visualization observer readout
Local Sidereal Time
17:43:51
Azimuth
Unknown
Elevation
Unknown
Doppler factor
Unknown
Orbital elements
Apogee altitude
874.238 km
Perigee altitude
716.113 km
Semi-major axis
7,173.313 km
Eccentricity
0.01102
Inclination
98.8943°
RAAN
26.9508°
Arg. of periapsis
340.7765°
True anomaly
19.34228°
Mean anomaly
18.9272°
Eccentric anomaly
19.1342°
Mean motion
3.57243 °/min
Orbital period
100.77 mins
BSTAR
0.00083074
Loading maneuver chart data...
Computing Atmospheric mass density...
Loading historical data...
Loading historical data...
Loading historical data...
Loading historical data...
Loading historical data...
Loading historical data...
Loading historical data...

Documentation

Showing up to 5 results
|